[Iaude] MPEC V111: 2023 VH3 [a=1.76,e=0.36,i=12.1,H=21.2]
    mpec at marsden.cfa.harvard.edu 
    mpec at marsden.cfa.harvard.edu
       
    Wed Nov  8 04:08:04 EST 2023
    
    
  
M.P.E.C. 2023-V111                             Issued 2023 November 8, 09:06 UT
     The Minor Planet Electronic Circulars contain information on unusual
         minor planets, routine data on comets and natural satellites,
         and occasional editorial announcements.  They are published
    on behalf of Division F of the International Astronomical Union by the
          Minor Planet Center, Smithsonian Astrophysical Observatory,
                          Cambridge, MA 02138, U.S.A.
			  
             Prepared using the Tamkin Foundation Computer Network
                              MPC at CFA.HARVARD.EDU
            URL https://www.minorplanetcenter.net/    ISSN 1523-6714
                                    2023 VH3                                    
Observations:
     K23V03H* C2023 11 05.56575306 07 39.591+49 01 53.26         20.34wXEV111F52
     K23V03H  C2023 11 05.57824106 07 39.900+49 01 16.23         20.43wXEV111F52
     K23V03H  C2023 11 05.59059106 07 40.205+49 00 39.36         20.94wXEV111F52
     K23V03H IC2023 11 06.12753206 08 04.56 +48 33 43.5          20.0 GVEV111L01
     K23V03H IC2023 11 06.13005506 08 04.53 +48 33 36.0          20.5 GVEV111L01
     K23V03H KC2023 11 06.13257906 08 04.60 +48 33 28.9          20.3 GVEV111L01
     K23V03H KC2023 11 06.13510206 08 04.74 +48 33 21.3          20.4 GVEV111L01
     K23V03H KC2023 11 06.13762406 08 04.80 +48 33 13.6          20.4 GVEV111L01
     K23V03H  C2023 11 07.72323 06 09 04.02 +47 13 23.2          18.8 RmEV111P93
     K23V03H  C2023 11 07.72541 06 09 04.04 +47 13 16.2          18.8 RmEV111P93
     K23V03H  C2023 11 07.72755 06 09 04.08 +47 13 10.3          19.0 RmEV111P93
     K23V03H  C2023 11 07.73404 06 09 04.12 +47 12 50.3          18.6 RmEV111P93
     K23V03H KC2023 11 08.06821 06 09 13.65 +46 55 40.3          19.2 GVEV111M29
     K23V03H KC2023 11 08.07565 06 09 13.67 +46 55 18.0          18.7 GVEV111M29
     K23V03H KB2023 11 08.32861 06 09 21.32 +46 42 20.6          19.6 GXEV111H36
     K23V03H KB2023 11 08.34139 06 09 21.33 +46 41 41.1          20.0 GXEV111H36
     K23V03H KB2023 11 08.34778 06 09 21.36 +46 41 21.7          19.8 GXEV111H36
Observer details:
F52 Pan-STARRS 2, Haleakala.  Observers J. Bulger, T. Lowe, P. Minguez, A.
    Schultz, I. Smith.  Measurers K. Chambers, T. de Boer, J. Fairlamb, H.
    Gao, M. Huber, C.-C. Lin, E. Magnier, Y. Ramanjooloo, R. Wainscoat, R.
    Weryk.  1.8-m Ritchey-Chretien + CCD.
H36 Sandlot Observatory, Scranton.  Observer G. Hug.  0.56-m f/4.8 reflector +
    CMO.
L01 Visnjan Observatory, Tican.  Observer K. Korlevic.  1.0-m f/2.9 reflector
    + CCD.
M29 O.M.Ni.A. Observatory, Cesena.  Observers V. Tinella, A. De Pieri.  0.40-m
    f/8 reflector + CCD.
P93 Space Tracking and Communications Center, JAXA.  Observers S. Urakawa, S.
    Okumura, O. Hashimoto.  1.0-m f/3.0 reflector + CCD.
Orbital elements:
2023 VH3                                                 Earth MOID = 0.1821 AU
Epoch 2023 Sept. 13.0 TT = JDT 2460200.5                MPC                     
M 348.22417              (2000.0)            P               Q                  
n   0.42344283     Peri.  130.45435     +0.88674560     -0.41546598             
a   1.7563303      Node   254.97621     +0.33450008     +0.87930460             
e   0.3631016      Incl.   12.11241     +0.31904847     +0.23283351             
P   2.33           H   21.24          G   0.15           U   9                  
Residuals in seconds of arc
231105 F52  0.1+  0.1-    231106 L01  0.1+  0.4+    231108 M29  0.3-  0.7+
231105 F52  0.0   0.0     231106 L01  0.0   0.3+    231108 M29  0.9-  1.1+
231105 F52  0.0   0.0     231107 P93  0.2+  0.1-    231108 H36  0.8+  0.2+
231106 L01  0.3+  0.3-    231107 P93  0.1+  0.4-    231108 H36  0.2-  0.5-
231106 L01  0.7-  0.2-    231107 P93  0.3+  0.1+    231108 H36  0.4-  0.4-
231106 L01  0.7-  0.3+    231107 P93  0.0   0.2-
Ephemeris:
2023 VH3                 a,e,i = 1.76, 0.36, 12                  q = 1.1186
Date    TT    R. A. (2000) Decl.     Delta      r    Elong.  Phase     V
2023 10 09    04 33 55.3 +65 19 56   0.2697  1.1187   109.6    57.3    20.7
...
2023 10 24    05 44 38.3 +58 15 39   0.2475  1.1260   116.1    52.5    20.4
...
2023 11 01    06 02 26.7 +52 39 14   0.2384  1.1376   122.1    47.6    20.2
...
2023 11 07    06 08 39.5 +47 49 58   0.2336  1.1495   127.9    42.9    20.0
2023 11 08    06 09 11.4 +46 59 10   0.2330  1.1518   128.9    42.0    20.0
2023 11 09    06 09 35.4 +46 07 41   0.2325  1.1541   130.0    41.1    20.0
...
2023 11 15    06 09 33.3 +40 47 08   0.2314  1.1695   137.1    35.2    19.8
...
2023 11 23    06 04 32.2 +33 23 04   0.2358  1.1937   147.7    26.2    19.7
...
2023 12 08    05 48 04.8 +20 34 12   0.2681  1.2485   167.7     9.6    19.5
A. U. Tomatic                (C) Copyright 2023 MPC           M.P.E.C. 2023-V111
    
    
More information about the Iaude
mailing list